Home   Weather   Kathua   Past weeks

Flag for India Past Weather in Kathua, Jammu and Kashmir, India — Yesterday and Last 2 Weeks

66 °F


Feels Like: 66 °F
Forecast: 58 / 89 °F
Wind: No wind

Location: Lahore Airport

Current Time: Oct 24, 2016 at 5:28:33 AM

Latest Report: Oct 24, 2016 at 4:55 AM

Visibility: 2 mi

Pressure: 29.77 "Hg

Humidity: 78%

Dew Point: 59 °F

Location of KathuaLocation

Past Weather in Kathua — Graph


Kathua Temperature Yesterday

Maximum temperature yesterday: 91 °F (at 2:55 PM)
Minimum temperature yesterday: 66 °F (at 7:55 AM)
Average temperature yesterday: 80 °F

High & Low Weather Summary for the Past Weeks

High97 °F (Oct 12, 3:25 PM)88% (Oct 11, 7:25 AM)29.95 "Hg (Oct 11, 7:25 AM)
Low64 °F (Oct 19, 6:25 AM)20% (Oct 13, 3:25 PM)29.68 "Hg (Oct 9, 3:55 PM)
Average81 °F56%29.80 "Hg
* Reported Oct 9 3:55 AM — Oct 24 4:25 AM, Kathua, Weather by CustomWeather, © 2016

Note: Actual official high and low records may vary slightly from our data, if they occured in-between our weather recording intervals... More about our weather records


Kathua Weather History for the Previous 24 Hours

Scroll right to see more
Time TempWeatherWind HumidityBarometerVisibility
4:25 AM
Mon, Oct 24
66 °FClear.No wind78%29.77 "Hg2 mi
3:55 AM68 °FClear.No wind73%29.77 "Hg2 mi
3:30 AM68 °FClear.3 mph73%29.77 "Hg2 mi
3:00 AM70 °FClear.No wind69%29.77 "Hg2 mi
2:30 AM70 °FClear.No wind69%29.77 "Hg2 mi
2:00 AM72 °FClear.No wind69%29.77 "Hg2 mi
1:30 AM72 °FClear.3 mph69%29.80 "Hg2 mi
1:00 AM73 °FClear.107 mph69%29.80 "Hg2 mi
12:30 AM73 °FClear.No wind69%29.80 "Hg2 mi
12:00 AM75 °FClear.No wind65%29.80 "Hg2 mi
11:30 PM
Sun, Oct 23
75 °FClear.3 mph65%29.80 "Hg2 mi
11:00 PM75 °FClear.No wind61%29.80 "Hg2 mi
10:25 PM77 °FClear.No wind57%29.80 "Hg2 mi
9:55 PM77 °FClear.No wind57%29.80 "Hg2 mi
9:30 PM79 °FClear.No wind51%29.80 "Hg2 mi
9:00 PM81 °FClear.3 mph51%29.80 "Hg2 mi
8:25 PM81 °FClear.5 mph51%29.80 "Hg2 mi
7:55 PM81 °FHaze.3 mph48%29.80 "Hg2 mi
7:25 PM82 °FHaze.3 mph45%29.80 "Hg2 mi
6:55 PM82 °FHaze.3 mph42%29.80 "Hg2 mi
6:25 PM84 °FHaze.3 mph40%29.77 "Hg2 mi
5:55 PM86 °FHaze.3 mph38%29.77 "Hg2 mi
5:25 PM88 °FHaze.5 mph35%29.77 "Hg2 mi
4:55 PM90 °FHaze.6 mph36%29.77 "Hg2 mi
4:25 PM90 °FHaze.8 mph33%29.80 "Hg2 mi
3:55 PM91 °FHaze.8 mph34%29.80 "Hg2 mi
3:25 PM91 °FHaze.7 mph34%29.80 "Hg2 mi
2:55 PM91 °FHaze.8 mph34%29.80 "Hg2 mi
2:25 PM90 °FHaze.7 mph38%29.80 "Hg2 mi
1:25 PM88 °FHaze.8 mph38%29.83 "Hg2 mi
12:55 PM88 °FHaze.9 mph38%29.86 "Hg1 mi
12:25 PM86 °FHaze.6 mph40%29.86 "Hg1 mi
11:55 AM86 °FHaze.7 mph40%29.86 "Hg1 mi
11:25 AM84 °FHaze.7 mph43%29.89 "Hg1 mi
10:55 AM81 °FClear.6 mph51%29.89 "Hg1 mi
10:25 AM81 °FClear.6 mph51%29.89 "Hg1 mi
9:55 AM79 °FClear.7 mph54%29.89 "Hg1 mi
9:25 AM77 °FClear.5 mph57%29.89 "Hg1 mi
8:55 AM73 °FClear.No wind65%29.86 "Hg1 mi
8:25 AM70 °FClear.No wind73%29.86 "Hg1 mi
7:55 AM66 °FFog.No wind88%29.86 "Hg1 mi
5:25 AM68 °FClear.No wind88%29.83 "Hg2 mi
5:00 AM70 °FClear.No wind83%29.83 "Hg2 mi
Weather by CustomWeather, © 2016

See weather overviewHow to use our weather pages